Zurück zum Katalog

STARLINK-37831

AktivKommunikationSSO
NORAD 69489·PAYLOAD·🇺🇸 United States

Gestartet Jun 11, 2026 von Vandenberg Space Force Base

Loading…

Nächste Überflüge (nächste 24 Stunden)

TLE

AktuellSource: CelesTrak SupGP

Epoche: Sep 15, 2026, 03:58 UTC

1 69489C 26131M   26258.16576389 -.00063370  00000+0 -19674-2 0  2584
2 69489  97.2833 279.1136 0001912 100.6265 143.9073 15.33466457    14

Verfolge STARLINK-37831 in Echtzeit mit AllMySat

Download on the App Store